Year,Month,Day,Hour,Minute,Value (Times are PST for temperature in C)
2008,06,30,00,00,15.20
2008,06,30,00,01,15.00
2008,06,30,00,02,15.00
2008,06,30,00,03,15.00
2008,06,30,00,04,15.00
2008,06,30,00,05,14.80
2008,06,30,00,06,14.70
2008,06,30,00,07,14.70
2008,06,30,00,08,14.60
2008,06,30,00,09,14.60
2008,06,30,00,10,14.50
2008,06,30,00,11,14.50
2008,06,30,00,12,14.50
2008,06,30,00,13,14.50
2008,06,30,00,14,14.50
2008,06,30,00,15,14.50
2008,06,30,00,16,14.60
2008,06,30,00,17,14.60
2008,06,30,00,18,14.60
2008,06,30,00,19,14.60
2008,06,30,00,20,14.70
2008,06,30,00,21,14.70
2008,06,30,00,22,14.70
2008,06,30,00,23,14.70
2008,06,30,00,24,14.70
2008,06,30,00,25,14.70
2008,06,30,00,26,14.70
2008,06,30,00,27,14.70
2008,06,30,00,28,14.70
2008,06,30,00,29,14.80
2008,06,30,00,30,14.80
2008,06,30,00,31,14.80
2008,06,30,00,32,14.90
2008,06,30,00,33,14.90
2008,06,30,00,34,15.00
2008,06,30,00,35,15.00
2008,06,30,00,36,15.00
2008,06,30,00,37,15.00
2008,06,30,00,38,15.00
2008,06,30,00,39,15.20
2008,06,30,00,40,15.30
2008,06,30,00,41,15.30
2008,06,30,00,42,15.20
2008,06,30,00,43,15.20
2008,06,30,00,44,15.20
2008,06,30,00,45,15.20
2008,06,30,00,46,15.20
2008,06,30,00,47,15.30
2008,06,30,00,48,15.30
2008,06,30,00,49,15.30
2008,06,30,00,50,15.30
2008,06,30,00,51,15.30
2008,06,30,00,52,15.20
2008,06,30,00,53,15.10
2008,06,30,00,54,15.00
2008,06,30,00,55,15.00
2008,06,30,00,56,15.00
2008,06,30,00,57,15.00
2008,06,30,00,58,14.90
2008,06,30,00,59,14.90
2008,06,30,01,00,14.90
2008,06,30,01,01,14.90
2008,06,30,01,02,14.80
2008,06,30,01,03,14.80
2008,06,30,01,04,14.80
2008,06,30,01,05,14.80
2008,06,30,01,06,14.90
2008,06,30,01,07,14.90
2008,06,30,01,08,15.00
2008,06,30,01,09,15.00
2008,06,30,01,10,15.00
2008,06,30,01,11,15.20
2008,06,30,01,12,15.20
2008,06,30,01,13,15.10
2008,06,30,01,14,15.00
2008,06,30,01,15,15.00
2008,06,30,01,16,15.00
2008,06,30,01,17,15.00
2008,06,30,01,18,15.00
2008,06,30,01,19,15.00
2008,06,30,01,20,15.00
2008,06,30,01,21,15.00
2008,06,30,01,22,15.00
2008,06,30,01,23,15.00
2008,06,30,01,24,15.00
2008,06,30,01,25,15.00
2008,06,30,01,26,15.00
2008,06,30,01,27,14.90
2008,06,30,01,28,14.80
2008,06,30,01,29,14.80
2008,06,30,01,30,14.80
2008,06,30,01,31,14.70
2008,06,30,01,32,14.70
2008,06,30,01,33,14.70
2008,06,30,01,34,14.70
2008,06,30,01,35,14.70
2008,06,30,01,36,14.80
2008,06,30,01,37,14.80
2008,06,30,01,38,14.80
2008,06,30,01,39,14.80
2008,06,30,01,40,14.80
2008,06,30,01,41,14.80
2008,06,30,01,42,14.90
2008,06,30,01,43,14.90
2008,06,30,01,44,14.90
2008,06,30,01,45,15.00
2008,06,30,01,46,15.00
2008,06,30,01,47,15.00
2008,06,30,01,48,15.00
2008,06,30,01,49,15.00
2008,06,30,01,50,15.00
2008,06,30,01,51,15.00
2008,06,30,01,52,15.00
2008,06,30,01,53,15.00
2008,06,30,01,54,15.00
2008,06,30,01,55,15.10
2008,06,30,01,56,15.10
2008,06,30,01,57,15.20
2008,06,30,01,58,15.20
2008,06,30,01,59,15.30
2008,06,30,02,00,15.30
2008,06,30,02,01,15.30
2008,06,30,02,02,15.40
2008,06,30,02,03,15.40
2008,06,30,02,04,15.40
2008,06,30,02,05,15.50
2008,06,30,02,06,15.50
2008,06,30,02,07,15.60
2008,06,30,02,08,15.70
2008,06,30,02,09,15.70
2008,06,30,02,10,15.80
2008,06,30,02,11,15.80
2008,06,30,02,12,15.90
2008,06,30,02,13,15.90
2008,06,30,02,14,15.90
2008,06,30,02,15,15.90
2008,06,30,02,16,15.90
2008,06,30,02,17,16.00
2008,06,30,02,18,16.00
2008,06,30,02,19,16.10
2008,06,30,02,20,16.10
2008,06,30,02,21,16.10
2008,06,30,02,22,16.10
2008,06,30,02,23,16.20
2008,06,30,02,24,16.20
2008,06,30,02,25,16.20
2008,06,30,02,26,16.20
2008,06,30,02,27,16.20
2008,06,30,02,28,16.30
2008,06,30,02,29,16.30
2008,06,30,02,30,16.30
2008,06,30,02,31,16.30
2008,06,30,02,32,16.30
2008,06,30,02,33,16.30
2008,06,30,02,34,16.30
2008,06,30,02,35,16.30
2008,06,30,02,36,16.30
2008,06,30,02,37,16.30
2008,06,30,02,38,16.30
2008,06,30,02,39,16.30
2008,06,30,02,40,16.30
2008,06,30,02,41,16.30
2008,06,30,02,42,16.30
2008,06,30,02,43,16.30
2008,06,30,02,44,16.30
2008,06,30,02,45,16.30
2008,06,30,02,46,16.30
2008,06,30,02,47,16.40
2008,06,30,02,48,16.40
2008,06,30,02,49,16.40
2008,06,30,02,50,16.40
2008,06,30,02,51,16.40
2008,06,30,02,52,16.40
2008,06,30,02,53,16.50
2008,06,30,02,54,16.50
2008,06,30,02,55,16.50
2008,06,30,02,56,16.50
2008,06,30,02,57,16.60
2008,06,30,02,58,16.60
2008,06,30,02,59,16.60
2008,06,30,03,00,16.60
2008,06,30,03,01,16.60
2008,06,30,03,02,16.60
2008,06,30,03,03,16.60
2008,06,30,03,04,16.60
2008,06,30,03,05,16.60
2008,06,30,03,06,16.60
2008,06,30,03,07,16.60
2008,06,30,03,08,16.60
2008,06,30,03,09,16.60
2008,06,30,03,10,16.60
2008,06,30,03,11,16.60
2008,06,30,03,12,16.60
2008,06,30,03,13,16.60
2008,06,30,03,14,16.60
2008,06,30,03,15,16.60
2008,06,30,03,16,16.60
2008,06,30,03,17,16.60
2008,06,30,03,18,16.60
2008,06,30,03,19,16.50
2008,06,30,03,20,16.50
2008,06,30,03,21,16.50
2008,06,30,03,22,16.50
2008,06,30,03,23,16.50
2008,06,30,03,24,16.40
2008,06,30,03,25,16.40
2008,06,30,03,26,16.40
2008,06,30,03,27,16.40
2008,06,30,03,28,16.40
2008,06,30,03,29,16.30
2008,06,30,03,30,16.30
2008,06,30,03,31,16.30
2008,06,30,03,32,16.30
2008,06,30,03,33,16.30
2008,06,30,03,34,16.30
2008,06,30,03,35,16.30
2008,06,30,03,36,16.30
2008,06,30,03,37,16.30
2008,06,30,03,38,16.30
2008,06,30,03,39,16.30
2008,06,30,03,40,16.30
2008,06,30,03,41,16.40
2008,06,30,03,42,16.40
2008,06,30,03,43,16.40
2008,06,30,03,44,16.40
2008,06,30,03,45,16.40
2008,06,30,03,46,16.40
2008,06,30,03,47,16.40
2008,06,30,03,48,16.40
2008,06,30,03,49,16.40
2008,06,30,03,50,16.40
2008,06,30,03,51,16.40
2008,06,30,03,52,16.50
2008,06,30,03,53,16.50
2008,06,30,03,54,16.50
2008,06,30,03,55,16.50
2008,06,30,03,56,16.50
2008,06,30,03,57,16.50
2008,06,30,03,58,16.50
2008,06,30,03,59,16.50
2008,06,30,04,00,16.50
2008,06,30,04,01,16.50
2008,06,30,04,02,16.50
2008,06,30,04,03,16.50
2008,06,30,04,04,16.50
2008,06,30,04,05,16.50
2008,06,30,04,06,16.50
2008,06,30,04,07,16.50
2008,06,30,04,08,16.50
2008,06,30,04,09,16.40
2008,06,30,04,10,16.40
2008,06,30,04,11,16.40
2008,06,30,04,12,16.40
2008,06,30,04,13,16.40
2008,06,30,04,14,16.40
2008,06,30,04,15,16.40
2008,06,30,04,16,16.50
2008,06,30,04,17,16.50
2008,06,30,04,18,16.60
2008,06,30,04,19,16.60
2008,06,30,04,20,16.60
2008,06,30,04,21,16.60
2008,06,30,04,22,16.60
2008,06,30,04,23,16.60
2008,06,30,04,24,16.60
2008,06,30,04,25,16.70
2008,06,30,04,26,16.70
2008,06,30,04,27,16.70
2008,06,30,04,28,16.80
2008,06,30,04,29,16.80
2008,06,30,04,30,16.90
2008,06,30,04,31,16.90
2008,06,30,04,32,16.90
2008,06,30,04,33,17.00
2008,06,30,04,34,17.00
2008,06,30,04,35,17.10
2008,06,30,04,36,17.10
2008,06,30,04,37,17.20
2008,06,30,04,38,17.20
2008,06,30,04,39,17.20
2008,06,30,04,40,17.20
2008,06,30,04,41,17.20
2008,06,30,04,42,17.20
2008,06,30,04,43,17.20
2008,06,30,04,44,17.20
2008,06,30,04,45,17.20
2008,06,30,04,46,17.20
2008,06,30,04,47,17.10
2008,06,30,04,48,17.20
2008,06,30,04,49,17.20
2008,06,30,04,50,17.20
2008,06,30,04,51,17.20
2008,06,30,04,52,17.20
2008,06,30,04,53,17.20
2008,06,30,04,54,17.20
2008,06,30,04,55,17.10
2008,06,30,04,56,17.10
2008,06,30,04,57,17.00
2008,06,30,04,58,17.00
2008,06,30,04,59,16.90
2008,06,30,05,00,16.90
2008,06,30,05,01,16.90
2008,06,30,05,02,16.90
2008,06,30,05,03,16.90
2008,06,30,05,04,16.90
2008,06,30,05,05,16.90
2008,06,30,05,06,16.80
2008,06,30,05,07,16.80
2008,06,30,05,08,16.80
2008,06,30,05,09,16.80
2008,06,30,05,10,16.80
2008,06,30,05,11,16.70
2008,06,30,05,12,16.70
2008,06,30,05,13,16.70
2008,06,30,05,14,16.60
2008,06,30,05,15,16.60
2008,06,30,05,16,16.60
2008,06,30,05,17,16.60
2008,06,30,05,18,16.60
2008,06,30,05,19,16.60
2008,06,30,05,20,16.60
2008,06,30,05,21,16.60
2008,06,30,05,22,16.60
2008,06,30,05,23,16.60
2008,06,30,05,24,16.60
2008,06,30,05,25,16.50
2008,06,30,05,26,16.50
2008,06,30,05,27,16.50
2008,06,30,05,28,16.50
2008,06,30,05,29,16.50
2008,06,30,05,30,16.50
2008,06,30,05,31,16.50
2008,06,30,05,32,16.50
2008,06,30,05,33,16.60
2008,06,30,05,34,16.60
2008,06,30,05,35,16.50
2008,06,30,05,36,16.50
2008,06,30,05,37,16.50
2008,06,30,05,38,16.50
2008,06,30,05,39,16.50
2008,06,30,05,40,16.40
2008,06,30,05,41,16.40
2008,06,30,05,42,16.40
2008,06,30,05,43,16.40
2008,06,30,05,44,16.40
2008,06,30,05,45,16.40
2008,06,30,05,46,16.40
2008,06,30,05,47,16.30
2008,06,30,05,48,16.40
2008,06,30,05,49,16.30
2008,06,30,05,50,16.40
2008,06,30,05,51,16.30
2008,06,30,05,52,16.30
2008,06,30,05,53,16.30
2008,06,30,05,54,16.30
2008,06,30,05,55,16.30
2008,06,30,05,56,16.30
2008,06,30,05,57,16.30
2008,06,30,05,58,16.30
2008,06,30,05,59,16.30
2008,06,30,06,00,16.30
2008,06,30,06,01,16.30
2008,06,30,06,02,16.30
2008,06,30,06,03,16.30
2008,06,30,06,04,16.30
2008,06,30,06,05,16.30
2008,06,30,06,06,16.30
2008,06,30,06,07,16.30
2008,06,30,06,08,16.40
2008,06,30,06,09,16.40
2008,06,30,06,10,16.50
2008,06,30,06,11,16.50
2008,06,30,06,12,16.60
2008,06,30,06,13,16.60
2008,06,30,06,14,16.70
2008,06,30,06,15,16.70
2008,06,30,06,16,16.80
2008,06,30,06,17,16.80
2008,06,30,06,18,16.80
2008,06,30,06,19,16.80
2008,06,30,06,20,16.90
2008,06,30,06,21,16.90
2008,06,30,06,22,17.00
2008,06,30,06,23,17.00
2008,06,30,06,24,17.00
2008,06,30,06,25,17.10
2008,06,30,06,26,17.10
2008,06,30,06,27,17.10
2008,06,30,06,28,17.20
2008,06,30,06,29,17.20
2008,06,30,06,30,17.20
2008,06,30,06,31,17.20
2008,06,30,06,32,17.10
2008,06,30,06,33,17.00
2008,06,30,06,34,17.00
2008,06,30,06,35,16.90
2008,06,30,06,36,16.90
2008,06,30,06,37,16.80
2008,06,30,06,38,16.80
2008,06,30,06,39,16.80
2008,06,30,06,40,16.80
2008,06,30,06,41,16.90
2008,06,30,06,42,16.90
2008,06,30,06,43,17.00
2008,06,30,06,44,17.00
2008,06,30,06,45,17.10
2008,06,30,06,46,17.10
2008,06,30,06,47,17.10
2008,06,30,06,48,17.10
2008,06,30,06,49,17.10
2008,06,30,06,50,17.10
2008,06,30,06,51,17.10
2008,06,30,06,52,17.10
2008,06,30,06,53,17.10
2008,06,30,06,54,17.10
2008,06,30,06,55,17.10
2008,06,30,06,56,17.10
2008,06,30,06,57,17.10
2008,06,30,06,58,17.10
2008,06,30,06,59,17.10
2008,06,30,07,00,17.10
2008,06,30,07,01,17.10
2008,06,30,07,02,17.20
2008,06,30,07,03,17.20
2008,06,30,07,04,17.20
2008,06,30,07,05,17.20
2008,06,30,07,06,17.30
2008,06,30,07,07,17.30
2008,06,30,07,08,17.30
2008,06,30,07,09,17.40
2008,06,30,07,10,17.40
2008,06,30,07,11,17.50
2008,06,30,07,12,17.50
2008,06,30,07,13,17.60
2008,06,30,07,14,17.60
2008,06,30,07,15,17.60
2008,06,30,07,16,17.60
2008,06,30,07,17,17.60
2008,06,30,07,18,17.70
2008,06,30,07,19,17.70
2008,06,30,07,20,17.70
2008,06,30,07,21,17.70
2008,06,30,07,22,17.70
2008,06,30,07,23,17.80
2008,06,30,07,24,17.80
2008,06,30,07,25,17.80
2008,06,30,07,26,17.80
2008,06,30,07,27,17.80
2008,06,30,07,28,17.80
2008,06,30,07,29,17.80
2008,06,30,07,30,17.90
2008,06,30,07,31,17.90
2008,06,30,07,32,17.90
2008,06,30,07,33,17.90
2008,06,30,07,34,17.90
2008,06,30,07,35,17.90
2008,06,30,07,36,17.90
2008,06,30,07,37,17.90
2008,06,30,07,38,18.00
2008,06,30,07,39,18.00
2008,06,30,07,40,18.00
2008,06,30,07,41,18.00
2008,06,30,07,42,18.00
2008,06,30,07,43,18.10
2008,06,30,07,44,18.10
2008,06,30,07,45,18.20
2008,06,30,07,46,18.20
2008,06,30,07,47,18.30
2008,06,30,07,48,18.30
2008,06,30,07,49,18.40
2008,06,30,07,50,18.40
2008,06,30,07,51,18.40
2008,06,30,07,52,18.40
2008,06,30,07,53,18.40
2008,06,30,07,54,18.40
2008,06,30,07,55,18.30
2008,06,30,07,56,18.30
2008,06,30,07,57,18.20
2008,06,30,07,58,18.00
2008,06,30,07,59,17.70
2008,06,30,08,00,17.40
2008,06,30,08,01,17.20
2008,06,30,08,02,17.10
2008,06,30,08,03,16.90
2008,06,30,08,04,16.70
2008,06,30,08,05,16.40
2008,06,30,08,06,16.20
2008,06,30,08,07,16.00
2008,06,30,08,08,15.80
2008,06,30,08,09,15.60
2008,06,30,08,10,15.40
2008,06,30,08,11,15.20
2008,06,30,08,12,15.00
2008,06,30,08,13,15.00
2008,06,30,08,14,15.00
2008,06,30,08,15,14.90
2008,06,30,08,16,14.80
2008,06,30,08,17,14.80
2008,06,30,08,18,14.70
2008,06,30,08,19,14.70
2008,06,30,08,20,14.70
2008,06,30,08,21,14.70
2008,06,30,08,22,14.70
2008,06,30,08,23,14.80
2008,06,30,08,24,14.80
2008,06,30,08,25,14.80
2008,06,30,08,26,14.90
2008,06,30,08,27,14.90
2008,06,30,08,28,15.00
2008,06,30,08,29,15.00
2008,06,30,08,30,15.00
2008,06,30,08,31,15.00
2008,06,30,08,32,15.00
2008,06,30,08,33,15.10
2008,06,30,08,34,15.00
2008,06,30,08,35,15.10
2008,06,30,08,36,15.10
2008,06,30,08,37,15.00
2008,06,30,08,38,15.00
2008,06,30,08,39,15.00
2008,06,30,08,40,15.00
2008,06,30,08,41,15.00
2008,06,30,08,42,15.00
2008,06,30,08,43,15.00
2008,06,30,08,44,14.90
2008,06,30,08,45,14.80
2008,06,30,08,46,14.70
2008,06,30,08,47,14.70
2008,06,30,08,48,14.60
2008,06,30,08,49,14.60
2008,06,30,08,50,14.60
2008,06,30,08,51,14.60
2008,06,30,08,52,14.60
2008,06,30,08,53,14.60
2008,06,30,08,54,14.70
2008,06,30,08,55,14.70
2008,06,30,08,56,14.70
2008,06,30,08,57,14.70
2008,06,30,08,58,14.80
2008,06,30,08,59,14.90
2008,06,30,09,00,15.00
2008,06,30,09,01,15.00
2008,06,30,09,02,15.10
2008,06,30,09,03,15.20
2008,06,30,09,04,15.30
2008,06,30,09,05,15.30
2008,06,30,09,06,15.40
2008,06,30,09,07,15.40
2008,06,30,09,08,15.50
2008,06,30,09,09,15.60
2008,06,30,09,10,15.80
2008,06,30,09,11,16.00
2008,06,30,09,12,16.20
2008,06,30,09,13,16.40
2008,06,30,09,14,16.70
2008,06,30,09,15,17.00
2008,06,30,09,16,17.30
2008,06,30,09,17,17.60
2008,06,30,09,18,17.90
2008,06,30,09,19,18.10
2008,06,30,09,20,18.30
2008,06,30,09,21,18.50
2008,06,30,09,22,18.70
2008,06,30,09,23,18.80
2008,06,30,09,24,18.80
2008,06,30,09,25,18.80
2008,06,30,09,26,18.90
2008,06,30,09,27,18.90
2008,06,30,09,28,18.90
2008,06,30,09,29,19.00
2008,06,30,09,30,19.10
2008,06,30,09,31,19.20
2008,06,30,09,32,19.30
2008,06,30,09,33,19.40
2008,06,30,09,34,19.50
2008,06,30,09,35,19.60
2008,06,30,09,36,19.60
2008,06,30,09,37,19.70
2008,06,30,09,38,19.80
2008,06,30,09,39,19.80
2008,06,30,09,40,19.80
2008,06,30,09,41,20.00
2008,06,30,09,42,20.10
2008,06,30,09,43,20.30
2008,06,30,09,44,20.30
2008,06,30,09,45,20.30
2008,06,30,09,46,20.30
2008,06,30,09,47,20.30
2008,06,30,09,48,20.20
2008,06,30,09,49,20.20
2008,06,30,09,50,20.20
2008,06,30,09,51,20.20
2008,06,30,09,52,20.20
2008,06,30,09,53,20.10
2008,06,30,09,54,20.10
2008,06,30,09,55,20.20
2008,06,30,09,56,20.30
2008,06,30,09,57,20.40
2008,06,30,09,58,20.50
2008,06,30,09,59,20.60
2008,06,30,10,00,20.60
2008,06,30,10,01,20.70
2008,06,30,10,02,20.80
2008,06,30,10,03,20.90
2008,06,30,10,04,21.00
2008,06,30,10,05,21.00
2008,06,30,10,06,21.10
2008,06,30,10,07,21.20
2008,06,30,10,08,21.30
2008,06,30,10,09,21.30
2008,06,30,10,10,21.20
2008,06,30,10,11,21.00
2008,06,30,10,12,20.80
2008,06,30,10,13,20.50
2008,06,30,10,14,20.40
2008,06,30,10,15,20.30
2008,06,30,10,16,20.30
2008,06,30,10,17,20.30
2008,06,30,10,18,20.30
2008,06,30,10,19,20.30
2008,06,30,10,20,20.30
2008,06,30,10,21,20.30
2008,06,30,10,22,20.20
2008,06,30,10,23,20.10
2008,06,30,10,24,20.10
2008,06,30,10,25,20.10
2008,06,30,10,26,20.20
2008,06,30,10,27,20.30
2008,06,30,10,28,20.40
2008,06,30,10,29,20.50
2008,06,30,10,30,20.60
2008,06,30,10,31,20.70
2008,06,30,10,32,20.80
2008,06,30,10,33,20.90
2008,06,30,10,34,20.90
2008,06,30,10,35,21.00
2008,06,30,10,36,21.10
2008,06,30,10,37,21.20
2008,06,30,10,38,21.30
2008,06,30,10,39,21.40
2008,06,30,10,40,21.50
2008,06,30,10,41,21.50
2008,06,30,10,42,21.50
2008,06,30,10,43,21.60
2008,06,30,10,44,21.50
2008,06,30,10,45,21.40
2008,06,30,10,46,21.40
2008,06,30,10,47,21.40
2008,06,30,10,48,21.50
2008,06,30,10,49,21.60
2008,06,30,10,50,21.70
2008,06,30,10,51,21.80
2008,06,30,10,52,21.90
2008,06,30,10,53,22.00
2008,06,30,10,54,22.10
2008,06,30,10,55,22.00
2008,06,30,10,56,21.90
2008,06,30,10,57,21.80
2008,06,30,10,58,21.80
2008,06,30,10,59,21.80
2008,06,30,11,00,21.90
2008,06,30,11,01,22.00
2008,06,30,11,02,22.10
2008,06,30,11,03,22.00
2008,06,30,11,04,22.00
2008,06,30,11,05,22.00
2008,06,30,11,06,22.00
2008,06,30,11,07,21.90
2008,06,30,11,08,21.80
2008,06,30,11,09,21.80
2008,06,30,11,10,21.80
2008,06,30,11,11,21.80
2008,06,30,11,12,21.90
2008,06,30,11,13,22.00
2008,06,30,11,14,22.00
2008,06,30,11,15,22.10
2008,06,30,11,16,22.20
2008,06,30,11,17,22.20
2008,06,30,11,18,22.30
2008,06,30,11,19,22.30
2008,06,30,11,20,22.30
2008,06,30,11,21,22.30
2008,06,30,11,22,22.40
2008,06,30,11,23,22.40
2008,06,30,11,24,22.50
2008,06,30,11,25,22.60
2008,06,30,11,26,22.70
2008,06,30,11,27,22.80
2008,06,30,11,28,22.80
2008,06,30,11,29,23.00
2008,06,30,11,30,23.10
2008,06,30,11,31,23.20
2008,06,30,11,32,23.30
2008,06,30,11,33,23.40
2008,06,30,11,34,23.30
2008,06,30,11,35,23.30
2008,06,30,11,36,23.30
2008,06,30,11,37,23.40
2008,06,30,11,38,23.40
2008,06,30,11,39,23.50
2008,06,30,11,40,23.60
2008,06,30,11,41,23.60
2008,06,30,11,42,23.60
2008,06,30,11,43,23.70
2008,06,30,11,44,23.70
2008,06,30,11,45,23.80
2008,06,30,11,46,23.70
2008,06,30,11,47,23.70
2008,06,30,11,48,23.70
2008,06,30,11,49,23.70
2008,06,30,11,50,23.70
2008,06,30,11,51,23.60
2008,06,30,11,52,23.50
2008,06,30,11,53,23.40
2008,06,30,11,54,23.30
2008,06,30,11,55,23.10
2008,06,30,11,56,23.00
2008,06,30,11,57,22.90
2008,06,30,11,58,22.80
2008,06,30,11,59,22.80
2008,06,30,12,00,22.70
2008,06,30,12,01,22.60
2008,06,30,12,02,22.60
2008,06,30,12,03,22.60
2008,06,30,12,04,22.60
2008,06,30,12,05,22.60
2008,06,30,12,06,22.60
2008,06,30,12,07,22.70
2008,06,30,12,08,22.80
2008,06,30,12,09,22.90
2008,06,30,12,10,23.00
2008,06,30,12,11,23.00
2008,06,30,12,12,23.00
2008,06,30,12,13,23.00
2008,06,30,12,14,23.00
2008,06,30,12,15,23.00
2008,06,30,12,16,23.10
2008,06,30,12,17,23.10
2008,06,30,12,18,23.20
2008,06,30,12,19,23.30
2008,06,30,12,20,23.40
2008,06,30,12,21,23.40
2008,06,30,12,22,23.40
2008,06,30,12,23,23.50
2008,06,30,12,24,23.70
2008,06,30,12,25,23.80
2008,06,30,12,26,24.00
2008,06,30,12,27,24.20
2008,06,30,12,28,24.30
2008,06,30,12,29,24.40
2008,06,30,12,30,24.50
2008,06,30,12,31,24.50
2008,06,30,12,32,24.50
2008,06,30,12,33,24.40
2008,06,30,12,34,24.40
2008,06,30,12,35,24.50
2008,06,30,12,36,24.60
2008,06,30,12,37,24.70
2008,06,30,12,38,24.80
2008,06,30,12,39,24.80
2008,06,30,12,40,24.80
2008,06,30,12,41,24.80
2008,06,30,12,42,24.90
2008,06,30,12,43,25.00
2008,06,30,12,44,25.10
2008,06,30,12,45,25.20
2008,06,30,12,46,25.20
2008,06,30,12,47,25.20
2008,06,30,12,48,25.20
2008,06,30,12,49,25.30
2008,06,30,12,50,25.30
2008,06,30,12,51,25.20
2008,06,30,12,52,25.10
2008,06,30,12,53,24.90
2008,06,30,12,54,24.90
2008,06,30,12,55,24.80
2008,06,30,12,56,24.80
2008,06,30,12,57,24.90
2008,06,30,12,58,25.00
2008,06,30,12,59,25.10
2008,06,30,13,00,25.20
2008,06,30,13,01,25.20
2008,06,30,13,02,25.30
2008,06,30,13,03,25.30
2008,06,30,13,04,25.30
2008,06,30,13,05,25.30
2008,06,30,13,06,25.40
2008,06,30,13,07,25.40
2008,06,30,13,08,25.40
2008,06,30,13,09,25.50
2008,06,30,13,10,25.60
2008,06,30,13,11,25.60
2008,06,30,13,12,25.60
2008,06,30,13,13,25.70
2008,06,30,13,14,25.70
2008,06,30,13,15,25.70
2008,06,30,13,16,25.70
2008,06,30,13,17,25.70
2008,06,30,13,18,25.80
2008,06,30,13,19,25.80
2008,06,30,13,20,25.70
2008,06,30,13,21,25.70
2008,06,30,13,22,25.70
2008,06,30,13,23,25.80
2008,06,30,13,24,25.80
2008,06,30,13,25,25.90
2008,06,30,13,26,25.90
2008,06,30,13,27,25.90
2008,06,30,13,28,25.80
2008,06,30,13,29,25.70
2008,06,30,13,30,25.60
2008,06,30,13,31,25.60
2008,06,30,13,32,25.60
2008,06,30,13,33,25.70
2008,06,30,13,34,25.60
2008,06,30,13,35,25.60
2008,06,30,13,36,25.50
2008,06,30,13,37,25.50
2008,06,30,13,38,25.40
2008,06,30,13,39,25.40
2008,06,30,13,40,25.40
2008,06,30,13,41,25.40
2008,06,30,13,42,25.50
2008,06,30,13,43,25.50
2008,06,30,13,44,25.60
2008,06,30,13,45,25.60
2008,06,30,13,46,25.60
2008,06,30,13,47,25.60
2008,06,30,13,48,25.60
2008,06,30,13,49,25.60
2008,06,30,13,50,25.60
2008,06,30,13,51,25.50
2008,06,30,13,52,25.40
2008,06,30,13,53,25.50
2008,06,30,13,54,25.60
2008,06,30,13,55,25.60
2008,06,30,13,56,25.70
2008,06,30,13,57,25.70
2008,06,30,13,58,25.80
2008,06,30,13,59,25.80
2008,06,30,14,00,25.80
2008,06,30,14,01,25.70
2008,06,30,14,02,25.70
2008,06,30,14,03,25.70
2008,06,30,14,04,25.70
2008,06,30,14,05,25.70
2008,06,30,14,06,25.70
2008,06,30,14,07,25.70
2008,06,30,14,08,25.60
2008,06,30,14,09,25.60
2008,06,30,14,10,25.60
2008,06,30,14,11,25.60
2008,06,30,14,12,25.50
2008,06,30,14,13,25.50
2008,06,30,14,14,25.40
2008,06,30,14,15,25.40
2008,06,30,14,16,25.40
2008,06,30,14,17,25.50
2008,06,30,14,18,25.60
2008,06,30,14,19,25.60
2008,06,30,14,20,25.70
2008,06,30,14,21,25.90
2008,06,30,14,22,26.00
2008,06,30,14,23,26.10
2008,06,30,14,24,26.10
2008,06,30,14,25,26.20
2008,06,30,14,26,26.30
2008,06,30,14,27,26.50
2008,06,30,14,28,26.60
2008,06,30,14,29,26.60
2008,06,30,14,30,26.70
2008,06,30,14,31,26.80
2008,06,30,14,32,26.80
2008,06,30,14,33,26.70
2008,06,30,14,34,26.70
2008,06,30,14,35,26.70
2008,06,30,14,36,26.70
2008,06,30,14,37,26.70
2008,06,30,14,38,26.70
2008,06,30,14,39,26.70
2008,06,30,14,40,26.70
2008,06,30,14,41,26.60
2008,06,30,14,42,26.60
2008,06,30,14,43,26.60
2008,06,30,14,44,26.70
2008,06,30,14,45,26.70
2008,06,30,14,46,26.60
2008,06,30,14,47,26.60
2008,06,30,14,48,26.60
2008,06,30,14,49,26.60
2008,06,30,14,50,26.70
2008,06,30,14,51,26.90
2008,06,30,14,52,27.00
2008,06,30,14,53,27.10
2008,06,30,14,54,27.10
2008,06,30,14,55,27.10
2008,06,30,14,56,27.00
2008,06,30,14,57,27.00
2008,06,30,14,58,27.00
2008,06,30,14,59,27.10
2008,06,30,15,00,27.10
2008,06,30,15,01,27.00
2008,06,30,15,02,27.00
2008,06,30,15,03,27.00
2008,06,30,15,04,27.00
2008,06,30,15,05,26.90
2008,06,30,15,06,27.00
2008,06,30,15,07,27.00
2008,06,30,15,08,27.00
2008,06,30,15,09,27.00
2008,06,30,15,10,27.00
2008,06,30,15,11,27.10
2008,06,30,15,12,27.20
2008,06,30,15,13,27.30
2008,06,30,15,14,27.40
2008,06,30,15,15,27.50
2008,06,30,15,16,27.70
2008,06,30,15,17,27.70
2008,06,30,15,18,27.80
2008,06,30,15,19,27.80
2008,06,30,15,20,27.80
2008,06,30,15,21,27.90
2008,06,30,15,22,27.80
2008,06,30,15,23,27.80
2008,06,30,15,24,27.80
2008,06,30,15,25,27.80
2008,06,30,15,26,27.70
2008,06,30,15,27,27.70
2008,06,30,15,28,27.70
2008,06,30,15,29,27.70
2008,06,30,15,30,27.60
2008,06,30,15,31,27.50
2008,06,30,15,32,27.50
2008,06,30,15,33,27.50
2008,06,30,15,34,27.60
2008,06,30,15,35,27.70
2008,06,30,15,36,27.80
2008,06,30,15,37,27.80
2008,06,30,15,38,27.70
2008,06,30,15,39,27.70
2008,06,30,15,40,27.70
2008,06,30,15,41,27.60
2008,06,30,15,42,27.50
2008,06,30,15,43,27.30
2008,06,30,15,44,27.30
2008,06,30,15,45,27.20
2008,06,30,15,46,27.10
2008,06,30,15,47,27.00
2008,06,30,15,48,26.90
2008,06,30,15,49,26.80
2008,06,30,15,50,26.80
2008,06,30,15,51,26.80
2008,06,30,15,52,26.80
2008,06,30,15,53,26.70
2008,06,30,15,54,26.70
2008,06,30,15,55,26.70
2008,06,30,15,56,26.70
2008,06,30,15,57,26.70
2008,06,30,15,58,26.60
2008,06,30,15,59,26.60
2008,06,30,16,00,26.50
2008,06,30,16,01,26.50
2008,06,30,16,02,26.50
2008,06,30,16,03,26.60
2008,06,30,16,04,26.60
2008,06,30,16,05,26.60
2008,06,30,16,06,26.60
2008,06,30,16,07,26.60
2008,06,30,16,08,26.70
2008,06,30,16,09,26.70
2008,06,30,16,10,26.70
2008,06,30,16,11,26.70
2008,06,30,16,12,26.70
2008,06,30,16,13,26.70
2008,06,30,16,14,26.60
2008,06,30,16,15,26.50
2008,06,30,16,16,26.40
2008,06,30,16,17,26.30
2008,06,30,16,18,26.20
2008,06,30,16,19,26.10
2008,06,30,16,20,26.00
2008,06,30,16,21,25.90
2008,06,30,16,22,25.80
2008,06,30,16,23,25.70
2008,06,30,16,24,25.60
2008,06,30,16,25,25.50
2008,06,30,16,26,25.40
2008,06,30,16,27,25.40
2008,06,30,16,28,25.40
2008,06,30,16,29,25.50
2008,06,30,16,30,25.60
2008,06,30,16,31,25.70
2008,06,30,16,32,25.80
2008,06,30,16,33,25.90
2008,06,30,16,34,26.00
2008,06,30,16,35,26.20
2008,06,30,16,36,26.30
2008,06,30,16,37,26.40
2008,06,30,16,38,26.40
2008,06,30,16,39,26.40
2008,06,30,16,40,26.50
2008,06,30,16,41,26.50
2008,06,30,16,42,26.60
2008,06,30,16,43,26.60
2008,06,30,16,44,26.60
2008,06,30,16,45,26.60
2008,06,30,16,46,26.70
2008,06,30,16,47,26.70
2008,06,30,16,48,26.70
2008,06,30,16,49,26.70
2008,06,30,16,50,26.70
2008,06,30,16,51,26.80
2008,06,30,16,52,26.80
2008,06,30,16,53,26.80
2008,06,30,16,54,26.80
2008,06,30,16,55,26.80
2008,06,30,16,56,26.80
2008,06,30,16,57,26.80
2008,06,30,16,58,26.70
2008,06,30,16,59,26.70
2008,06,30,17,00,26.60
2008,06,30,17,01,26.60
2008,06,30,17,02,26.60
2008,06,30,17,03,26.70
2008,06,30,17,04,26.70
2008,06,30,17,05,26.70
2008,06,30,17,06,26.80
2008,06,30,17,07,26.80
2008,06,30,17,08,26.80
2008,06,30,17,09,26.80
2008,06,30,17,10,26.80
2008,06,30,17,11,26.80
2008,06,30,17,12,26.90
2008,06,30,17,13,26.90
2008,06,30,17,14,26.90
2008,06,30,17,15,26.90
2008,06,30,17,16,26.90
2008,06,30,17,17,26.90
2008,06,30,17,18,26.80
2008,06,30,17,19,26.80